Location: Gallinara
(44.0333°N, 8.2333°E)
Time: 14:25:28
(UTC+00:00)

Cosmos 921 Rocket - Visible Passes

Search period start: 30 November 2021 00:00
Search period end: 10 December 2021 00:00
Orbit: 572 x 631 km, 75.8° (Epoch: 29 November)

Date Brightness Start Highest point End Pass type
(mag) Time Alt. Az. Time Alt. Az. Time Alt. Az.
30 Nov 5.0 04:13:05 13° N 04:16:11 26° ENE 04:19:55 10° ESE visible
30 Nov 3.9 05:50:35 10° NW 05:54:27 31° W 05:58:21 10° SSW visible
01 Dec 4.1 04:25:30 20° N 04:28:11 43° ENE 04:32:25 10° SE visible
01 Dec 4.5 06:03:04 10° NW 06:06:07 19° W 06:09:12 10° SW visible
02 Dec 3.2 04:38:00 30° N 04:40:06 74° ENE 04:44:33 10° SSE visible
02 Dec 5.5 18:43:25 10° SSW 18:44:05 14° SSW 18:44:05 14° SSW visible
03 Dec 5.9 03:13:45 14° ENE 03:13:45 14° ENE 03:15:43 10° E visible
03 Dec 3.0 04:50:35 41° NW 04:51:57 64° WSW 04:56:21 10° S visible
03 Dec 4.7 17:18:33 10° SE 17:20:01 16° ESE 17:20:01 16° ESE visible
03 Dec 5.4 18:55:36 10° SW 18:56:51 18° SW 18:56:51 18° SW visible
04 Dec 5.4 03:26:24 21° E 03:26:24 21° E 03:28:54 10° ESE visible
04 Dec 3.6 05:03:15 35° W 05:03:43 36° W 05:07:48 10° SSW visible
04 Dec 3.7 17:29:26 10° SSE 17:32:43 32° ESE 17:32:43 32° ESE visible
04 Dec 5.7 19:08:10 10° WSW 19:09:34 17° W 19:09:34 17° W visible
05 Dec 5.1 03:39:10 26° ESE 03:39:10 26° ESE 03:41:31 10° SE visible
05 Dec 4.4 05:16:00 21° WSW 05:16:00 21° WSW 05:18:49 10° SSW visible
05 Dec 2.9 17:40:49 10° S 17:44:55 59° ESE 17:45:22 55° ENE visible
05 Dec 6.0 19:21:18 10° W 19:22:12 13° W 19:22:12 13° W visible
06 Dec 5.0 03:51:57 23° SE 03:51:57 23° SE 03:53:44 10° SSE visible
06 Dec 5.2 05:28:48 11° WSW 05:28:48 11° WSW 05:29:02 10° WSW visible
06 Dec 3.0 17:52:33 10° SSW 17:56:45 78° WNW 17:57:55 46° N visible
07 Dec 5.4 04:04:47 15° S 04:04:47 15° S 04:05:38 10° S visible
07 Dec 4.6 16:28:09 10° SE 16:30:46 16° E 16:33:26 10° NE visible
07 Dec 4.0 18:04:38 10° SW 18:08:39 44° WNW 18:10:24 28° NNW visible
08 Dec 3.9 16:38:50 10° SSE 16:42:25 28° E 16:45:57 10° NE visible
08 Dec 4.9 18:17:05 10° WSW 18:20:39 26° WNW 18:22:47 18° NNW visible
09 Dec 3.2 16:50:05 10° S 16:54:08 49° ESE 16:58:16 10° NNE visible
09 Dec 5.6 18:29:59 10° W 18:32:44 17° WNW 18:35:05 12° NNW visible
